FW4892 Weather Reports


time (UTC)temp
F
wind
direction
speed
knots
gust
knots
rain 1hr
in
rain 24hr
in
rain mn
in
humidity
%
barometer
mb
20260906173736 77 306 0.9 1.7 0.00 0.00 0.00 68 1024.6
20260906173232 77 7 0.0 2.6 0.00 0.00 0.00 69 1024.4
20260906172731 76 239 2.6 2.6 0.00 0.00 0.00 67 1024.7
20260906172226 75 166 1.7 1.7 0.00 0.00 0.00 68 1024.6
20260906171721 75 252 1.7 5.2 0.00 0.00 0.00 69 1024.4
20260906171216 77 121 2.6 2.6 0.00 0.00 0.00 66 1024.8
20260906170713 75 282 0.9 1.7 0.00 0.00 0.00 67 1024.7
20260906170213 77 152 1.7 4.3 0.00 0.00 0.00 66 1024.8
20260906165709 77 234 2.6 2.6 0.00 0.00 0.00 65 1025.0
20260906165204 76 256 0.0 1.7 0.00 0.00 0.00 67 1024.9
20260906164702 77 110 0.0 2.6 0.00 0.00 0.00 67 1024.8
20260906164158 77 263 0.9 1.7 0.00 0.00 0.00 66 1024.8
20260906163654 75 260 1.7 2.6 0.00 0.00 0.00 68 1024.9
20260906163150 79 247 1.7 1.7 0.00 0.00 0.00 65 1024.8
20260906162647 78 267 0.0 0.9 0.00 0.00 0.00 66 1024.8
20260906162146 78 133 0.9 2.6 0.00 0.00 0.00 68 1024.6
20260906161641 76 244 0.9 2.6 0.00 0.00 0.00 66 1024.8
20260906161140 75 277 0.9 2.6 0.00 0.00 0.00 71 1024.7
20260906160639 75 126 0.0 5.2 0.00 0.00 0.00 69 1024.7
20260906160139 77 265 0.9 2.6 0.00 0.00 0.00 66 1024.6
20260906155636 75 83 0.0 6.1 0.00 0.00 0.00 68 1024.4
20260906155132 75 55 0.9 1.7 0.00 0.00 0.00 65 1024.7
20260906154627 76 78 0.0 1.7 0.00 0.00 0.00 70 1024.7
20260906154127 74 90 2.6 5.2 0.00 0.00 0.00 70 1024.8
20260906153625 73 252 0.9 1.7 0.00 0.00 0.00 67 1024.8
20260906153121 73 242 0.9 2.6 0.00 0.00 0.00 70 1024.8
20260906152615 72 114 2.6 2.6 0.00 0.00 0.00 71 1024.4
20260906152109 73 158 1.7 2.6 0.00 0.00 0.00 70 1024.9
20260906151604 73 271 0.9 1.7 0.00 0.00 0.00 71 1024.6
20260906151100 71 217 2.6 5.2 0.00 0.00 0.00 72 1024.4
20260906150555 71 252 0.0 1.7 0.00 0.00 0.00 71 1024.4
20260906150050 70 223 0.9 0.9 0.00 0.00 0.00 70 1024.4
20260906145549 70 176 1.7 4.3 0.00 0.00 0.00 72 1024.6
20260906145044 72 200 1.7 4.3 0.00 0.00 0.00 71 1024.6
20260906144538 71 150 1.7 1.7 0.00 0.00 0.00 73 1024.7
20260906144034 71 157 3.5 4.3 0.00 0.00 0.00 72 1024.6
20260906143529 70 27 0.9 1.7 0.00 0.00 0.00 73 1024.4
20260906143026 71 145 0.9 1.7 0.00 0.00 0.00 74 1024.6
20260906142525 70 254 0.9 2.6 0.00 0.00 0.00 77 1024.7
20260906142021 70 267 0.0 0.9 0.00 0.00 0.00 78 1024.6
20260906141519 68 172 0.9 2.6 0.00 0.00 0.00 80 1024.7
20260906141015 68 199 1.7 1.7 0.00 0.00 0.00 79 1024.6
20260906140509 68 201 0.0 2.6 0.00 0.00 0.00 82 1025.1
20260906140008 68 107 1.7 2.6 0.00 0.00 0.00 83 1024.9
20260906135505 67 143 2.6 4.3 0.00 0.00 0.00 84 1024.7
20260906135001 67 147 0.9 4.3 0.00 0.00 0.00 84 1025.0
20260906134457 66 145 2.6 2.6 0.00 0.00 0.00 85 1024.8
20260906133956 66 133 0.9 4.3 0.00 0.00 0.00 86 1024.9
20260906133453 66 169 0.9 1.7 0.00 0.00 0.00 85 1024.9
20260906132948 66 263 0.0 2.6 0.00 0.00 0.00 86 1025.0
20260906132443 65 280 0.0 2.6 0.00 0.00 0.00 87 1024.6
20260906131938 65 56 0.9 1.7 0.00 0.00 0.00 87 1024.7
20260906131433 66 251 0.0 0.0 0.00 0.00 0.00 88 1024.6
20260906130929 66 288 0.0 0.9 0.00 0.00 0.00 87 1024.6
20260906130429 64 183 1.7 1.7 0.00 0.00 0.00 89 1024.6
20260906125929 61 253 0.0 0.9 0.00 0.00 0.00 95 1024.6
20260906125426 60 138 0.9 1.7 0.00 0.00 0.00 99 1024.6
20260906124925 60 256 0.0 0.0 0.00 0.00 0.00 99 1024.6
20260906124422 59 337 0.0 1.7 0.00 0.00 0.00 99 1024.6
20260906123916 59 286 0.0 0.0 0.00 0.00 0.00 99 1024.4
20260906123415 59 234 0.0 0.0 0.00 0.00 0.00 99 1024.6
20260906122915 59 273 0.0 0.0 0.00 0.00 0.00 99 1024.4
20260906122410 57 275 0.0 0.0 0.00 0.00 0.00 99 1024.2
20260906121907 57 276 0.0 0.0 0.00 0.00 0.00 99 1024.6
20260906121403 56 278 0.0 0.0 0.00 0.00 0.00 99 1024.3
20260906120859 56 280 0.0 0.0 0.00 0.00 0.00 99 1024.3
20260906120354 56 280 0.0 0.0 0.00 0.00 0.00 99 1024.2
20260906115850 56 272 0.0 0.0 0.00 0.00 0.00 99 1024.2
20260906115346 56 272 0.0 0.0 0.00 0.00 0.00 99 1024.1
20260906114845 56 278 0.0 0.0 0.00 0.00 0.00 99 1023.8
20260906114340 56 277 0.0 0.0 0.00 0.00 0.00 99 1023.9
20260906113835 56 278 0.0 0.0 0.00 0.00 0.00 99 1023.9
20260906113334 55 280 0.0 0.0 0.00 0.00 0.00 99 1023.8
20260906112830 55 273 0.0 0.0 0.00 0.00 0.00 99 1023.8
20260906112326 56 267 0.0 0.0 0.00 0.00 0.00 99 1023.7
20260906111826 55 279 0.0 0.0 0.00 0.00 0.00 99 1023.9
20260906111320 55 273 0.0 0.0 0.00 0.00 0.00 99 1023.5
20260906110815 55 271 0.0 0.0 0.00 0.00 0.00 99 1023.7
20260906110311 55 271 0.0 0.0 0.00 0.00 0.00 99 1023.8
20260906105809 55 272 0.0 0.0 0.00 0.00 0.00 99 1023.7
20260906105306 56 272 0.0 0.0 0.00 0.00 0.00 99 1023.5
20260906104801 56 274 0.0 0.0 0.00 0.00 0.00 99 1023.8
20260906104259 56 274 0.0 0.0 0.00 0.00 0.00 99 1023.7
20260906103758 56 279 0.0 0.0 0.00 0.00 0.00 99 1023.4
20260906103257 56 271 0.0 0.0 0.00 0.00 0.00 99 1023.5
20260906102753 56 271 0.0 0.0 0.00 0.00 0.00 99 1023.4
20260906102252 56 272 0.0 0.0 0.00 0.00 0.00 99 1023.4
20260906101747 57 272 0.0 0.0 0.00 0.00 0.00 99 1023.4
20260906101242 57 273 0.0 0.0 0.00 0.00 0.00 99 1023.2
20260906100738 57 270 0.0 0.0 0.00 0.00 0.00 99 1023.4
20260906100237 57 273 0.0 0.0 0.00 0.00 0.00 99 1023.4
20260906095733 57 276 0.0 0.0 0.00 0.00 0.00 99 1023.3
20260906095228 57 274 0.0 0.0 0.00 0.00 0.00 99 1023.4
20260906094727 57 277 0.0 0.0 0.00 0.00 0.00 99 1023.4
20260906094222 57 277 0.0 0.0 0.00 0.00 0.00 99 1023.4
20260906093718 57 276 0.0 0.0 0.00 0.00 0.00 99 1023.4
20260906093214 57 276 0.0 0.0 0.00 0.00 0.00 99 1023.4
20260906092709 57 272 0.0 0.0 0.00 0.00 0.00 99 1023.3
20260906092208 57 272 0.0 0.0 0.00 0.00 0.00 99 1023.7
20260906091705 57 272 0.0 0.0 0.00 0.00 0.00 99 1023.5
20260906091201 57 273 0.0 0.0 0.00 0.00 0.00 99 1023.6
20260906090657 57 271 0.0 0.0 0.00 0.00 0.00 99 1023.5
20260906090156 57 266 0.0 0.0 0.00 0.00 0.00 99 1023.3
20260906085655 58 266 0.0 0.0 0.00 0.00 0.00 99 1023.2
20260906085154 58 262 0.0 0.0 0.00 0.00 0.00 99 1023.3
20260906084649 58 280 0.0 0.0 0.00 0.00 0.00 99 1023.3
20260906084149 58 279 0.0 0.0 0.00 0.00 0.00 99 1023.6
20260906083644 59 280 0.0 0.0 0.00 0.00 0.00 99 1023.5
20260906083139 59 277 0.0 0.0 0.00 0.00 0.00 99 1023.5
20260906082634 59 285 0.0 0.0 0.00 0.00 0.00 99 1023.5
20260906082130 59 285 0.0 0.0 0.00 0.00 0.00 99 1023.3
20260906081626 59 285 0.0 0.0 0.00 0.00 0.00 99 1023.5
20260906081120 59 285 0.0 0.0 0.00 0.00 0.00 99 1023.4
20260906080617 59 285 0.0 0.0 0.00 0.00 0.00 99 1023.3
20260906080113 59 286 0.0 0.0 0.00 0.00 0.00 99 1023.2
20260906075613 59 286 0.0 0.0 0.00 0.00 0.00 99 1023.6
20260906075107 59 284 0.0 0.0 0.00 0.00 0.00 99 1023.5
20260906074602 59 285 0.0 0.0 0.00 0.00 0.00 99 1023.4
20260906074055 59 286 0.0 0.0 0.00 0.00 0.00 99 1023.3
20260906073550 59 286 0.0 0.0 0.00 0.00 0.00 99 1023.3
20260906073046 59 287 0.0 0.0 0.00 0.00 0.00 99 1023.3
20260906072541 59 288 0.0 0.0 0.00 0.00 0.00 99 1023.1
20260906072037 59 283 0.0 0.0 0.00 0.00 0.00 99 1023.3
20260906071533 58 280 0.0 0.0 0.00 0.00 0.00 99 1023.2
20260906071028 58 280 0.0 0.0 0.00 0.00 0.00 99 1022.9
20260906070524 58 280 0.0 0.0 0.00 0.00 0.00 99 1023.0
20260906070020 59 281 0.0 0.0 0.00 0.00 0.00 99 1023.2
20260906065519 59 281 0.0 0.0 0.00 0.00 0.00 99 1023.2
20260906065015 59 280 0.0 0.0 0.00 0.00 0.00 99 1023.1
20260906064511 59 280 0.0 0.0 0.00 0.00 0.00 99 1023.1
20260906064005 59 279 0.0 0.0 0.00 0.00 0.00 99 1023.3
20260906063455 59 279 0.0 0.0 0.00 0.00 0.00 99 1023.4
20260906062955 59 279 0.0 0.0 0.00 0.00 0.00 99 1023.4
20260906062450 59 279 0.0 0.0 0.00 0.00 0.00 99 1023.3
20260906061945 59 279 0.0 0.0 0.00 0.00 0.00 99 1023.6
20260906061436 60 282 0.0 0.0 0.00 0.00 0.00 99 1023.5
20260906060935 60 280 0.0 0.0 0.00 0.00 0.00 99 1023.4
20260906060433 60 280 0.0 0.0 0.00 0.00 0.00 99 1023.4
20260906055929 60 283 0.0 0.0 0.00 0.00 0.00 99 1023.4
20260906055425 60 216 0.0 0.0 0.00 0.00 0.00 99 1023.3
20260906054920 60 216 0.0 0.0 0.00 0.00 0.00 99 1023.1
20260906054414 60 214 0.0 0.0 0.00 0.00 0.00 99 1023.0
20260906053911 60 214 0.0 0.0 0.00 0.00 0.00 99 1022.9
20260906053406 60 214 0.0 0.0 0.00 0.00 0.00 99 1023.0
20260906052902 60 215 0.0 0.0 0.00 0.00 0.00 99 1022.8
20260906052358 60 215 0.0 0.0 0.00 0.00 0.00 99 1022.8
20260906051855 60 215 0.0 0.0 0.00 0.00 0.00 99 1023.0
20260906051354 60 215 0.0 0.0 0.00 0.00 0.00 99 1022.8
20260906050850 60 215 0.0 0.0 0.00 0.00 0.00 99 1022.9
20260906050345 60 215 0.0 0.0 0.00 0.00 0.00 99 1022.7
20260906045844 60 214 0.0 0.0 0.00 0.00 0.00 99 1022.3
20260906045338 60 214 0.0 0.0 0.00 0.00 0.00 99 1022.8
20260906044835 60 214 0.0 0.0 0.00 0.00 0.00 99 1022.5
20260906044334 60 214 0.0 0.0 0.00 0.00 0.00 99 1022.2
20260906043830 60 214 0.0 0.0 0.00 0.00 0.00 99 1022.3
20260906043326 60 214 0.0 0.0 0.00 0.00 0.00 99 1022.5
20260906042827 61 214 0.0 0.0 0.00 0.00 0.00 99 1022.1
20260906042325 61 215 0.0 0.0 0.00 0.00 0.00 99 1022.5
20260906041821 61 215 0.0 0.0 0.00 0.00 0.00 99 1022.1
20260906041317 61 214 0.0 0.0 0.00 0.00 0.00 99 1022.3
20260906040811 61 214 0.0 0.0 0.00 0.00 0.00 99 1022.0
20260906040307 61 214 0.0 0.0 0.00 0.00 0.00 99 1022.1
20260906035802 62 232 0.0 0.0 0.00 0.00 0.00 99 1022.0
20260906035257 62 230 0.0 0.0 0.00 0.00 0.00 99 1022.1
20260906034757 62 232 0.0 0.0 0.00 0.00 0.00 99 1022.1
20260906034252 62 228 0.0 0.9 0.00 0.00 0.00 99 1022.0
20260906033748 62 196 0.0 0.9 0.00 0.00 0.00 99 1022.1
20260906033247 63 198 0.0 0.0 0.00 0.00 0.00 99 1021.9
20260906032744 63 198 0.0 0.9 0.00 0.00 0.00 99 1022.1
20260906032244 63 197 0.0 0.0 0.00 0.00 0.00 99 1021.9
20260906031739 63 194 0.0 0.0 0.00 0.00 0.00 99 1021.9
20260906031235 63 196 0.0 0.0 0.00 0.00 0.00 99 1021.8
20260906030734 63 201 0.0 0.0 0.00 0.00 0.00 99 1021.9
20260906030230 63 200 0.0 0.0 0.00 0.00 0.00 99 1021.7
20260906025729 63 205 0.0 0.0 0.00 0.00 0.00 99 1021.9
20260906025224 63 205 0.0 0.0 0.00 0.00 0.00 99 1021.7
20260906024723 63 205 0.0 0.0 0.00 0.00 0.00 99 1021.8
20260906024222 63 208 0.0 0.0 0.00 0.00 0.00 99 1021.9
20260906023718 63 208 0.0 0.9 0.00 0.00 0.00 99 1022.0
20260906023213 63 184 0.9 1.7 0.00 0.00 0.00 99 1021.6
20260906022708 63 196 0.0 0.0 0.00 0.00 0.00 99 1021.7
20260906022203 64 196 0.0 0.0 0.00 0.00 0.00 99 1021.9
20260906021659 64 196 0.0 0.0 0.00 0.00 0.00 99 1021.8
20260906021157 64 196 0.0 0.0 0.00 0.00 0.00 99 1021.8
20260906020653 64 196 0.0 0.0 0.00 0.00 0.00 99 1021.8
20260906020148 64 196 0.0 0.0 0.00 0.00 0.00 99 1021.7
20260906015642 64 196 0.0 0.0 0.00 0.00 0.00 99 1021.5
20260906015140 64 196 0.0 0.0 0.00 0.00 0.00 99 1021.6
20260906014635 65 195 0.0 0.0 0.00 0.00 0.00 99 1021.6
20260906014131 65 194 0.0 0.0 0.00 0.00 0.00 98 1021.6
20260906013626 65 194 0.0 0.0 0.00 0.00 0.00 98 1021.4
20260906013122 66 194 0.0 0.0 0.00 0.00 0.00 98 1021.4
20260906012616 66 194 0.0 0.0 0.00 0.00 0.00 97 1021.5
20260906012116 66 241 0.0 0.9 0.00 0.00 0.00 96 1021.3
20260906011612 66 224 0.0 0.9 0.00 0.00 0.00 96 1021.2
20260906011107 66 219 0.0 0.9 0.00 0.00 0.00 96 1021.2
20260906010602 66 216 0.0 0.9 0.00 0.00 0.00 96 1021.1
20260906010058 67 269 0.0 0.0 0.00 0.00 0.00 94 1021.2
20260906005557 68 268 0.0 0.0 0.00 0.00 0.00 93 1021.1
20260906005057 69 256 0.0 0.0 0.00 0.00 0.00 91 1021.1
20260906004556 69 272 0.0 0.0 0.00 0.00 0.00 90 1021.2
20260906004051 68 249 0.0 0.0 0.00 0.00 0.00 93 1021.2
20260906003546 68 265 0.0 0.0 0.00 0.00 0.00 92 1021.2
20260906003043 69 270 0.0 0.0 0.00 0.00 0.00 91 1021.2
20260906002543 69 257 0.0 0.9 0.00 0.00 0.00 90 1021.2
20260906002037 69 240 0.0 0.0 0.00 0.00 0.00 90 1021.0
20260906001533 70 227 0.0 0.0 0.00 0.00 0.00 89 1021.1
20260906001032 71 225 0.0 0.9 0.00 0.00 0.00 89 1021.1
20260906000529 71 272 0.0 0.9 0.00 0.00 0.00 88 1021.0
20260906000024 71 102 0.0 1.7 0.00 0.00 0.00 87 1021.2
20260905235518 71 237 0.0 0.0 0.00 0.00 0.00 86 1021.0
20260905235013 72 256 0.0 0.0 0.00 0.00 0.00 85 1021.0
20260905234509 72 258 0.0 0.9 0.00 0.00 0.00 83 1020.9
20260905234009 72 147 0.9 2.6 0.00 0.00 0.00 83 1020.9
20260905233504 73 256 0.0 0.9 0.00 0.00 0.00 83 1021.1
20260905233003 73 239 0.0 0.9 0.00 0.00 0.00 82 1020.9
20260905232459 73 230 0.9 2.6 0.00 0.00 0.00 80 1021.0
20260905231954 74 95 0.0 0.0 0.00 0.00 0.00 80 1021.2
20260905231449 74 159 1.7 2.6 0.00 0.00 0.00 79 1020.9
20260905230940 74 243 0.0 0.9 0.00 0.00 0.00 78 1021.1
20260905230438 74 238 0.0 0.9 0.00 0.00 0.00 79 1020.9
20260905225931 75 176 0.9 1.7 0.00 0.00 0.00 78 1020.8
20260905225427 74 12 0.9 2.6 0.00 0.00 0.00 78 1020.8
20260905224921 75 232 0.9 2.6 0.00 0.00 0.00 78 1020.9
20260905224417 74 348 0.9 1.7 0.00 0.00 0.00 79 1020.8
20260905223916 74 271 0.0 2.6 0.00 0.00 0.00 78 1020.8
20260905223414 73 145 0.9 1.7 0.00 0.00 0.00 80 1020.9
20260905222909 73 271 0.0 2.6 0.00 0.00 0.00 81 1020.8
20260905222408 73 213 0.0 1.7 0.00 0.00 0.00 80 1021.1
20260905221904 74 221 0.0 0.0 0.00 0.00 0.00 77 1021.0
20260905221401 74 277 0.0 0.9 0.00 0.00 0.00 76 1021.1
20260905220856 76 88 2.6 4.3 0.00 0.00 0.00 73 1021.1
20260905220352 76 88 2.6 2.6 0.00 0.00 0.00 70 1021.0
20260905215851 77 246 0.0 4.3 0.00 0.00 0.00 71 1021.1
20260905215347 77 192 1.7 2.6 0.00 0.00 0.00 71 1021.2
20260905214843 77 252 0.0 0.9 0.00 0.00 0.00 71 1021.2
20260905214338 76 50 0.9 1.7 0.00 0.00 0.00 73 1021.2
20260905213833 75 190 0.9 1.7 0.00 0.00 0.00 75 1021.5
20260905213330 77 97 2.6 2.6 0.00 0.00 0.00 71 1021.2
20260905212824 77 269 0.0 0.9 0.00 0.00 0.00 72 1021.2
20260905212324 76 253 0.0 0.9 0.00 0.00 0.00 72 1021.4
20260905211818 75 262 0.9 1.7 0.00 0.00 0.00 72 1021.2
20260905211314 75 300 1.7 1.7 0.00 0.00 0.00 76 1021.0
20260905210811 75 258 0.0 0.9 0.00 0.00 0.00 74 1021.2
20260905210310 75 253 0.0 0.9 0.00 0.00 0.00 73 1021.2
20260905205809 76 0 0.0 2.6 0.00 0.00 0.00 73 1021.3
20260905205306 75 282 0.0 1.7 0.00 0.00 0.00 73 1021.1
20260905204803 76 96 0.9 2.6 0.00 0.00 0.00 72 1021.2
20260905204259 76 195 1.7 2.6 0.00 0.00 0.00 71 1021.3
20260905203758 76 161 0.9 2.6 0.00 0.00 0.00 72 1021.0
20260905203254 76 274 0.0 0.9 0.00 0.00 0.00 72 1021.1
20260905202749 77 99 1.7 1.7 0.00 0.00 0.00 72 1021.2
20260905202244 77 288 0.0 0.9 0.00 0.00 0.00 70 1021.3
20260905201739 75 271 0.0 0.9 0.00 0.00 0.00 71 1021.5
20260905201235 75 247 0.0 0.9 0.00 0.00 0.00 71 1021.2
20260905200730 75 264 0.0 0.9 0.00 0.00 0.00 71 1021.2
20260905200226 77 162 0.0 0.0 0.00 0.00 0.00 72 1021.3
20260905195723 76 71 0.0 0.9 0.00 0.00 0.00 74 1021.2
20260905195218 76 277 1.7 1.7 0.00 0.00 0.00 75 1021.2
20260905194714 75 84 1.7 2.6 0.00 0.00 0.00 75 1021.3
20260905194213 75 257 0.9 1.7 0.00 0.00 0.00 72 1021.1
20260905193708 74 208 0.0 0.0 0.00 0.00 0.00 73 1021.0
20260905193203 74 86 0.9 1.7 0.00 0.00 0.00 74 1021.2
20260905192658 74 323 0.0 0.9 0.00 0.00 0.00 75 1021.3
20260905192154 74 49 0.9 2.6 0.00 0.00 0.00 74 1021.2
20260905191654 77 95 0.0 1.7 0.00 0.00 0.00 73 1021.2
20260905191152 77 269 2.6 2.6 0.00 0.00 0.00 70 1021.1
20260905190651 75 309 0.9 1.7 0.00 0.00 0.00 77 1021.0
20260905190150 75 251 0.9 1.7 0.00 0.00 0.00 75 1021.1
20260905185649 76 265 0.9 0.9 0.00 0.00 0.00 74 1021.3
20260905185144 75 341 0.0 0.9 0.00 0.00 0.00 73 1021.3
20260905184643 75 264 0.0 0.9 0.00 0.00 0.00 73 1021.3
20260905184142 76 251 1.7 2.6 0.00 0.00 0.00 72 1021.5
20260905183642 77 250 0.9 1.7 0.00 0.00 0.00 69 1021.3
20260905183137 78 294 0.9 1.7 0.00 0.00 0.00 70 1021.4
20260905182637 75 278 0.9 2.6 0.00 0.00 0.00 74 1021.1
20260905182137 73 240 1.7 1.7 0.00 0.00 0.00 76 1021.3
20260905181632 75 110 0.9 0.9 0.00 0.00 0.00 75 1021.3
20260905181131 74 113 0.9 4.3 0.00 0.00 0.00 76 1021.5
20260905180626 77 306 0.9 4.3 0.00 0.00 0.00 75 1021.6
20260905180121 77 233 0.9 0.9 0.00 0.00 0.00 72 1021.5
20260905175620 77 296 0.9 1.7 0.00 0.00 0.00 69 1021.5
20260905175115 75 96 1.7 4.3 0.00 0.00 0.00 76 1021.5
20260905174611 75 106 2.6 2.6 0.00 0.00 0.00 73 1021.3
20260905174106 76 190 5.2 7.0 0.00 0.00 0.00 72 1021.2